Regional Weather Roundup
Issued by NWS

Home | Current Version | Previous Version | Graphics & Text | Print | Product List | Glossary On
Versions: 1 2 3 4 5 6 7 8 9 10 11 12 13 14 15 16 17 18 19 20 21 22 23 24 25 26 27 28 29 30 31 32 33 34 35 36 37 38 39 40 41 42 43 44 45 46 47 48 49 50
000
ASUS43 KIND 250509
RWRIN

WEATHER ROUNDUP FOR INDIANA
NATIONAL WEATHER SERVICE INDIANAPOLIS IN
100 AM EDT SAT MAR 25 2017

NOTE: "FAIR" INDICATES FEW OR NO CLOUDS BELOW 12,000 FEET WITH NO
SIGNIFICANT WEATHER AND/OR OBSTRUCTIONS TO VISIBILITY.

* - STATION DOES NOT REPORT WEATHER SUCH AS PRECIPITATION OR FOG.

+ - STATION NOT QUALITY CONTROLLED BY THE NATIONAL WEATHER SERVICE.
    USE DATA WITH CAUTION...ESPECIALLY DEWPOINT AND RELATIVE
    HUMIDITY OBSERVATIONS.

INZ001>003-010>013-019-020-250600-
NORTHWEST INDIANA

CITY           SKY/WX    TMP DP  RH WIND       PRES   REMARKS
GARY /AIRPORT/ CLOUDY    40  38  91 N15       30.08S
KNOX *+        CLOUDY    46  28  49 CALM      30.03F
LA PORTE +     CLOUDY    45  41  87 NW12      30.05R
MICHIGAN CITY+ CLOUDY    39  39 100 NW5       30.07R FOG
MONTICELLO +   PTCLDY    63  53  70 S9        30.01S
RENSSELAER +   CLOUDY    52  46  82 CALM      30.03R
VALPARAISO     CLOUDY    43  40  89 NW9       30.05R FOG

$$

LMZ046-743>745-250600-
SOUTHERN LAKE MICHIGAN

STATION/POSITION TIME  TEMP    WIND        PRES    WAVE
                       AIR SEA DIR/SP/G            HT
                 (UTC) (F)     (DEG/KT/KT) (MB)    (FT)
BURNS HARBOR     0440   38     330/  7/  9 1018.6R
MICHIGAN CITY    0440   38     280/ 10/ 11   N/A

$$

INZ004-005-014>016-021>024-250600-
NORTH CENTRAL INDIANA

CITY           SKY/WX    TMP DP  RH WIND       PRES   REMARKS
GOSHEN         CLOUDY    61  52  72 W7        30.04R
LOGANSPORT +   PTCLDY    57  52  82 S8        30.03F
PERU/GRISSOM   PTCLDY    60  54  79 SW10      30.02S
ROCHESTER +    MOCLDY    64  54  68 SW8       30.03S
SOUTH BEND     CLOUDY    51  45  79 CALM      30.04F
WARSAW +       CLOUDY    63  52  67 SW6       30.03S

$$

INZ006>009-017-018-025>027-250600-
NORTHEAST INDIANA

CITY           SKY/WX    TMP DP  RH WIND       PRES   REMARKS
ANGOLA *+      CLEAR     63  54  72 SW8       30.03S
AUBURN +       MOCLDY    64  52  63 SW8       30.04S
FORT WAYNE     CLOUDY    59  51  75 S5        30.05F
HUNTINGTON +   PTCLDY    62  52  70 SW6       30.04F
KENDALLVILLE + CLOUDY    62  53  71 SW9       30.04S

$$

INZ028-029-035-036-043>045-051>053-250600-
WEST CENTRAL INDIANA

CITY           SKY/WX    TMP DP  RH WIND       PRES   REMARKS
CRAWFORDSVL +  CLOUDY    62  52  71 S9        30.05S
GREENCASTLE +  CLOUDY    64  50  59 S8        30.06F
LAFAYETTE      PTCLDY    63  53  70 SW7       30.02S
TERRE HAUTE    CLOUDY    66  51  58 S12       30.04F

$$

INZ030>032-037>040-046>048-054>057-064-065-250600-
CENTRAL INDIANA

CITY           SKY/WX    TMP DP  RH WIND       PRES   REMARKS
CP ATTERBURY + CLOUDY    63  52  67 S9        30.10F
FISHERS *+     CLOUDY    63  55  77 S7        30.07S
FRANKFORT +    CLOUDY    62  54  74 S8        30.06S
INDIANAPOLIS   CLOUDY    64  52  64 S12       30.07S
-EAGLE CREEK   CLOUDY    66  51  58 S9        30.06S
KOKOMO +       PTCLDY    62  52  69 S10       30.05S
MARION +       MOCLDY    59  51  75 S10       30.05S HAZE
MT COMFORT *+  CLOUDY    61  52  72 S8        30.08F
SHELBYVILLE    CLOUDY    64  51  62 S12       30.08F
ZIONSVILLE +   MOCLDY    63  52  68 S13       30.07S

$$

INZ033-034-041-042-049-050-058-059-250600-
EAST CENTRAL INDIANA

CITY           SKY/WX    TMP DP  RH WIND       PRES   REMARKS
MUNCIE         CLOUDY    65  52  62 S14       30.06F
RICHMOND +     CLOUDY    55  50  82 S12       30.12S

$$

INZ060-061-067>069-081>083-085>088-250600-
SOUTHWEST INDIANA

CITY           SKY/WX    TMP DP  RH WIND       PRES   REMARKS
EVANSVILLE     CLOUDY    64  52  64 SE3       30.06F
HUNTINGBURG *+ PTCLDY    62  53  72 SE8       30.08F
WASHINGTON +   PTCLDY    59  50  71 MISG      30.06F

$$

INZ062-063-066-070>080-084-089>092-250600-
SOUTH CENTRAL AND SOUTHEAST INDIANA

CITY           SKY/WX    TMP DP  RH WIND       PRES   REMARKS
BEDFORD +      CLOUDY    64  50  59 SE5       30.10F
BLOOMINGTON    CLOUDY    64  50  60 S6        30.08F
MADISON *+     PTCLDY    63  50  63 S3        30.15F
NORTH VERNON + CLOUDY    66  52  59 S7        30.13S
SEYMOUR +      CLOUDY    64  54  68 S7        30.11F

$$




USA.gov is the U.S. government's official web portal to all federal, state and local government web resources and services.